Regional Weather Roundup
Issued by NWS

Home | Current Version | Previous Version | Graphics & Text | Print | Product List | Glossary On
Versions: 1 2 3 4 5 6 7 8 9 10 11 12 13 14 15 16 17 18 19 20 21 22 23 24 25 26 27 28 29 30 31 32 33 34 35 36 37 38 39 40 41 42 43 44 45 46 47 48 49 50
916
ASUS45 KBOU 280010
RWRCO

WEATHER ROUNDUP FOR COLORADO
NATIONAL WEATHER SERVICE DENVER/BOULDER CO
600 PM MDT TUE SEP 27 2016

NOTE: "FAIR" INDICATES FEW OR NO CLOUDS BELOW 12000 FEET WITH NO
SIGNIFICANT WEATHER AND/OR OBSTRUCTIONS TO VISIBILITY.

COZ001>005-013-030-031-280100-
...NORTHWEST COLORADO...

CITY           SKY/WX    TMP DP  RH WIND       PRES   REMARKS
CRAIG          FAIR      74  29  19 W8        30.21S
HAYDEN         FAIR      73  28  19 W9        30.23S
MEEKER         FAIR      75  30  19 W7        30.21F
MOUNT WERNER   NOT AVBL
STEAMBOAT SPGS FAIR      73  27  18 SW8       30.24S
WALDEN           N/A     70  28  21 NW14      30.33R
$$

COZ006>008-011-280100-
...WEST CENTRAL VALLEYS...

CITY           SKY/WX    TMP DP  RH WIND       PRES   REMARKS
GRAND JUNCTION FAIR      78  33  19 NW10      30.11F
MONTROSE       FAIR      75  34  22 NW9       30.17F
EAGLE          CLEAR     79  27  14 W7        30.20S
RIFLE          FAIR      78  33  19 W14       30.13S
DELTA          NOT AVBL
NUCLA          FAIR      79  30  17 W5        30.21S
$$

COZ017>023-064>068-280100-
...SOUTHWEST COLORADO...

CITY           SKY/WX    TMP DP  RH WIND       PRES   REMARKS
DURANGO        FAIR      72  26  18 SW8       30.24S
CORTEZ         FAIR      74  35  24 S10       30.20S
PAGOSA SPRINGS FAIR      71  21  15 SW9       30.30S
TELLURIDE      CLOUDY    64  33  31 NW6       30.40S
WOLF CREEK PAS FAIR      48  28  46 SW12G22   30.60S
$$

COZ009-010-012-014-032>034-037-058>063-280100-
...CENTRAL COLORADO...

CITY           SKY/WX    TMP DP  RH WIND       PRES   REMARKS
ASPEN          FAIR      71  29  21 N8        30.27S
BUENA VISTA    FAIR      69  26  19 S6        30.26S
COPPER MTN     FAIR      59  18  20 NW8       30.59S
BERTHOUD PASS  FAIR      46  32  57 CALM      30.63S
COTTONWOOD PAS MOCLDY    64  19  17 SE8       30.41S
GUNNISON       FAIR      73  28  18 W8        30.25S
KREMMLING      FAIR      77  12   8 NW3       30.26S
LEADVILLE      FAIR      65  18  16 N10       30.40R
MONARCH PASS   MOCLDY    55  23  28 SW12      30.68R
SALIDA         FAIR      78  21  12 SE3       30.30S
SUNLIGHT       FAIR      57  28  33 W5        30.54S
WILKERSON PASS FAIR      52  19  28 E8        30.57R
$$

COZ069>075-280100-
...SAN LUIS VALLEY/SANGRE DE CRISTO MOUNTAINS...

CITY           SKY/WX    TMP DP  RH WIND       PRES   REMARKS
ALAMOSA        FAIR      71  26  18 SW6       30.26F
LA VETA PASS   FAIR      57  28  33 MISG      30.46S
SAGUACHE       NOT AVBL
$$

COZ035-036-038>040-280100-
...NORTHERN COLORADO FRONT RANGE...

CITY           SKY/WX    TMP DP  RH WIND       PRES   REMARKS
DENVER INTL AP FAIR      80  20  10 NE6       30.14R
DMNS CITY PARK   N/A     78  24  13 N3G9      30.13S
AURORA         PTCLDY    80  23  12 NE5       30.16R
FRONT RANGE AP NOT AVBL
ERIE MUNI ARPT FAIR      79  24  13 N5        30.13R
BOULDER MUN AP FAIR      79  28  15 CALM      30.13S
CENTENNIAL     FAIR      78  24  13 N7        30.16S
BROOMFIELD     NOT AVBL
FORT COLLINS   FAIR      79  30  17 SW6       30.08S
LONGMONT       FAIR      82  30  15 CALM      30.14R
$$

COZ041-046-047-076>085-087-088-280100-
...PIKES PEAK/PALMER DIVIDE AND SOUTHERN FOOTHILLS...

CITY           SKY/WX    TMP DP  RH WIND       PRES   REMARKS
COLO. SPRINGS  FAIR      76  28  17 S8        30.20R
A. F. ACADEMY  FAIR      75  29  18 S10       30.20S
SCHRIEVER AFB  NOT AVBL
ELLICOTT       NOT AVBL
FALCON         FAIR      73  28  19 S6        30.25S
FORT CARSON    FAIR      77  30  17 E5        30.16S
LIMON          FAIR      80  22  11 N6        30.13S
MONUMENT HILL  FAIR      72  23  16 NE5       30.26S
TRINIDAD       FAIR      78  30  17 E7        30.14S
$$

COZ042>045-048>051-090-091-280100-
...NORTHEAST COLORADO...

CITY           SKY/WX    TMP DP  RH WIND       PRES   REMARKS
GREELEY ARPT   FAIR      81  34  18 SW6       30.10S
AKRON          FAIR      79  28  15 NW3       30.09S
BURLINGTON     FAIR      82  30  15 S3        30.06S
WRAY           NOT AVBL
STERLING       FAIR      81  34  18 S3        30.04R
HOLYOKE        FAIR      82  32  16 NW3       30.03F
FORT MORGAN    FAIR      79  29  16 SE5       30.09S
$$

COZ086-089-092>099-280100-
...SOUTHEAST COLORADO...

CITY           SKY/WX    TMP DP  RH WIND       PRES   REMARKS
PUEBLO         FAIR      84  32  15 SE9       30.07S
LA JUNTA       FAIR      84  31  14 E8        30.06S
LAMAR          FAIR      83  38  20 NE6       30.03S
SPRINGFIELD    NOT AVBL
$$




USA.gov is the U.S. government's official web portal to all federal, state and local government web resources and services.